ZL1KPB-13 Weather Reports


Display with metric or nautical units.
time (UTC)temp
F
wind
direction
speed
MPH
gust
MPH
rain 1hr
in
rain 24hr
in
rain mn
in
humidity
%
barometer
mb
20260509024028 66 342 4.0 7.0 0.00 2.44 1.24 69 1006.9
20260509023025 65 3 6.0 11.0 0.00 2.44 1.24 70 1006.9
20260509022041 63 227 5.0 11.0 0.00 2.44 1.24 73 1007.0
20260509021017 62 215 4.0 6.0 0.00 2.44 1.24 72 1007.0
20260509020114 63 188 4.0 8.0 0.00 2.44 1.24 72 1007.1
20260509015111 64 1 5.0 9.0 0.00 2.44 1.24 70 1007.0
20260509014107 64 310 3.0 7.0 0.00 2.44 1.24 71 1007.0
20260509013103 63 203 6.0 9.0 0.00 2.44 1.24 72 1007.0
20260509012101 64 26 7.0 12.0 0.00 2.44 1.24 67 1006.9
20260509011056 66 231 6.0 13.0 0.00 2.44 1.24 66 1007.0
20260509010053 66 39 5.0 11.0 0.00 2.44 1.24 71 1007.1
20260509005109 62 307 6.0 10.0 0.00 2.44 1.24 75 1007.3
20260509004046 62 310 6.0 16.0 0.00 2.44 1.24 72 1007.4
20260509003042 64 5 8.0 13.0 0.00 2.44 1.24 70 1007.5
20260509002038 63 283 6.0 11.0 0.00 2.44 1.24 72 1007.7
20260509001035 64 270 9.0 13.0 0.00 2.44 1.24 71 1007.9
20260509000031 63 336 8.0 18.0 0.00 2.44 1.24 74 1008.1
20260508235028 62 290 8.0 16.0 0.00 2.44 1.24 75 1008.2
20260508234026 63 326 9.0 17.0 0.00 2.44 1.24 74 1008.3
20260508233021 62 260 6.0 11.0 0.00 2.44 1.24 79 1008.4
20260508232017 62 296 6.0 11.0 0.00 2.44 1.24 80 1008.7
20260508231114 62 238 5.0 11.0 0.00 2.44 1.24 78 1008.8
20260508230112 62 314 6.0 10.0 0.00 2.44 1.24 76 1008.8
20260508225109 62 228 6.0 15.0 0.00 2.44 1.24 76 1008.9
20260508224124 63 17 8.0 14.0 0.00 2.44 1.24 75 1008.9
20260508223100 63 20 8.0 14.0 0.00 2.44 1.24 76 1008.9
20260508222057 62 331 8.0 13.0 0.00 2.44 1.24 76 1008.9
20260508221053 63 231 8.0 13.0 0.00 2.44 1.24 75 1009.0
20260508220050 63 24 5.0 8.0 0.00 2.44 1.24 77 1008.9
20260508215047 62 264 6.0 11.0 0.00 2.44 1.24 76 1008.9
20260508214043 63 270 7.0 15.0 0.00 2.44 1.24 76 1009.0
20260508213101 63 34 6.0 9.0 0.00 2.44 1.24 79 1009.1
20260508212057 63 20 5.0 10.0 0.00 2.44 1.24 81 1008.9
20260508211035 61 6 6.0 11.0 0.00 2.44 1.24 83 1009.0
20260508210031 61 338 7.0 11.0 0.00 2.44 1.24 82 1008.9
20260508205026 62 19 6.0 11.0 0.00 2.44 1.24 85 1008.8
20260508204022 61 346 6.0 9.0 0.00 2.44 1.24 86 1008.8
20260508203018 61 24 6.0 11.0 0.00 2.44 1.24 89 1008.7
20260508202117 60 24 5.0 8.0 0.00 2.44 1.24 90 1008.6
20260508201112 59 261 5.0 9.0 0.00 2.44 1.24 90 1008.6
20260508200109 59 266 7.0 11.0 0.00 2.44 1.24 91 1008.5
20260508195105 59 245 5.0 11.0 0.00 2.44 1.24 91 1008.4
20260508194101 59 297 5.0 12.0 0.00 2.44 1.24 92 1008.4
20260508193117 58 238 5.0 11.0 0.00 2.44 1.24 93 1008.5
20260508192054 58 249 5.0 7.0 0.00 2.44 1.24 94 1008.4
20260508191051 58 266 5.0 10.0 0.11 2.44 1.24 94 1008.4
20260508190107 59 249 4.0 10.0 0.13 2.44 1.24 94 1008.3
20260508185043 58 254 4.0 8.0 0.13 2.44 1.24 94 1008.1
20260508184041 58 238 4.0 6.0 0.13 2.44 1.24 94 1008.1
20260508183038 58 238 5.0 9.0 0.13 2.44 1.24 95 1008.1
20260508182032 58 230 6.0 14.0 0.13 2.44 1.24 95 1008.0
20260508181029 58 265 6.0 11.0 0.02 2.34 1.13 95 1007.9
20260508180025 58 41 5.0 8.0 0.00 2.31 1.11 95 1007.9
20260508175022 58 235 5.0 11.0 0.04 2.31 1.11 95 1007.8
20260508174018 58 278 6.0 10.0 0.04 2.31 1.11 96 1008.0
20260508173114 58 241 7.0 12.0 0.04 2.31 1.11 96 1008.1
20260508172130 58 286 6.0 10.0 0.04 2.31 1.11 96 1008.1
20260508171107 58 257 4.0 8.0 0.04 2.31 1.11 96 1008.1
20260508165101 58 288 6.0 11.0 0.00 2.28 1.07 97 1008.2
20260508164055 58 248 7.0 13.0 0.14 2.28 1.07 97 1008.3
20260508163052 58 307 6.0 12.0 0.20 2.28 1.07 96 1008.2
20260508162048 58 195 5.0 10.0 0.30 2.28 1.07 95 1008.2
20260508161045 58 246 4.0 8.0 0.30 2.28 1.07 94 1008.2
20260508160103 58 326 5.0 8.0 0.30 2.28 1.07 95 1008.3
20260508155038 58 353 5.0 14.0 0.31 2.28 1.07 95 1008.5
20260508154054 58 234 6.0 13.0 0.28 2.14 0.93 96 1008.4
20260508153030 58 238 6.0 11.0 0.22 2.08 0.87 96 1008.5
20260508152027 58 265 6.0 9.0 0.13 1.98 0.78 96 1008.6
20260508150021 58 246 7.0 10.0 0.13 1.98 0.78 97 1008.7
20260508145016 58 180 5.0 9.0 0.30 1.97 0.77 97 1009.1
20260508144113 58 292 4.0 8.0 0.18 1.85 0.65 97 1009.3
20260508143110 58 333 4.0 6.0 0.18 1.85 0.65 97 1009.4
20260508142106 57 241 6.0 12.0 0.19 1.85 0.65 96 1009.4
20260508141103 57 292 4.0 10.0 0.31 1.85 0.65 96 1009.3
20260508140120 57 322 6.0 11.0 0.40 1.85 0.65 95 1009.3
20260508135056 57 338 6.0 9.0 0.22 1.68 0.47 96 1009.2
20260508134054 57 236 7.0 11.0 0.22 1.68 0.47 97 1009.3
20260508133049 57 338 7.0 11.0 0.22 1.68 0.47 98 1009.4
20260508132105 57 262 9.0 14.0 0.21 1.67 0.46 98 1009.3
20260508131043 56 309 8.0 15.0 0.09 1.55 0.34 97 1009.3
20260508130039 56 317 5.0 8.0 0.00 1.45 0.25 97 1009.4
20260508125034 56 355 8.0 16.0 0.26 1.45 0.25 96 1009.6
20260508124031 56 248 5.0 14.0 0.52 1.45 0.25 95 1010.2
20260508123028 56 282 6.0 10.0 0.59 1.45 0.25 95 1010.1
20260508122024 56 348 5.0 9.0 0.59 1.45 0.25 95 1009.7
20260508121021 57 296 6.0 10.0 0.59 1.45 0.25 94 1010.0
20260508120017 57 25 7.0 14.0 0.59 1.45 0.25 95 1010.2
20260508115113 61 345 9.0 16.0 0.33 1.19 1.19 98 1010.1
20260508114110 62 232 9.0 15.0 0.17 0.93 0.93 99 1009.3
20260508113107 62 267 8.0 15.0 0.09 0.86 0.86 98 1009.4
20260508112104 62 274 7.0 15.0 0.09 0.86 0.86 98 1009.6
20260508111100 61 229 11.0 15.0 0.15 0.86 0.86 97 1009.7
20260508110056 61 246 6.0 11.0 0.15 0.86 0.86 96 1010.0
20260508105135 62 241 10.0 19.0 0.15 0.86 0.86 94 1010.1
20260508104111 62 318 7.0 12.0 0.06 0.77 0.77 94 1010.1
20260508103048 62 240 8.0 11.0 0.58 0.77 0.77 93 1010.1
20260508102043 62 252 13.0 21.0 0.58 0.77 0.77 92 1010.2
20260508101039 62 284 9.0 16.0 0.52 0.71 0.71 91 1010.5
20260508100036 62 257 11.0 20.0 0.52 0.71 0.71 89 1010.6
20260508095032 62 28 11.0 17.0 0.58 0.71 0.71 86 1010.6
20260508094029 62 280 10.0 17.0 0.58 0.71 0.71 89 1010.7
20260508093025 62 338 12.0 22.0 0.19 0.19 0.19 92 1011.0
20260508092022 62 250 13.0 24.0 0.19 0.19 0.19 91 1010.9
20260508091018 62 254 12.0 29.0 0.19 0.19 0.19 89 1010.9
20260508090115 62 342 14.0 25.0 0.19 0.19 0.19 88 1011.2
20260508085112 62 249 13.0 26.0 0.13 0.13 0.13 89 1010.9
20260508084127 62 279 15.0 30.0 0.13 0.13 0.13 89 1011.3
20260508083104 62 321 14.0 22.0 0.00 0.00 0.00 88 1011.2
20260508082100 62 321 13.0 21.0 0.00 0.00 0.00 86 1010.8
20260508081057 62 339 17.0 30.0 0.00 0.00 0.00 84 1011.4
20260508080055 62 246 15.0 30.0 0.00 0.00 0.00 86 1011.4
20260508075110 62 48 15.0 28.0 0.00 0.00 0.00 89 1011.4
20260508074047 62 260 15.0 24.0 0.00 0.00 0.00 91 1011.6
20260508073043 61 302 14.0 22.0 0.00 0.00 0.00 92 1011.5
20260508072039 61 259 11.0 23.0 0.00 0.00 0.00 94 1011.5
20260508071036 61 245 14.0 28.0 0.00 0.00 0.00 95 1011.3
20260508070035 61 235 8.0 13.0 0.00 0.00 0.00 94 1011.6
20260508065031 61 247 7.0 15.0 0.00 0.00 0.00 93 1011.8
20260508064025 61 232 10.0 16.0 0.00 0.00 0.00 92 1011.9
20260508063022 61 80 11.0 16.0 0.00 0.00 0.00 90 1011.9
20260508062018 61 294 10.0 17.0 0.00 0.00 0.00 89 1012.2
20260508061115 61 36 15.0 27.0 0.00 0.00 0.00 87 1012.3
20260508060112 62 264 14.0 24.0 0.00 0.00 0.00 87 1012.6
20260508055108 62 304 14.0 23.0 0.00 0.00 0.00 90 1013.0
20260508054104 62 241 13.0 21.0 0.00 0.00 0.00 89 1013.2
20260508053101 61 335 15.0 23.0 0.00 0.00 0.00 89 1013.6
20260508052058 61 31 12.0 22.0 0.00 0.00 0.00 90 1013.6
20260508051053 61 248 14.0 23.0 0.00 0.00 0.00 91 1013.8
20260508050049 61 246 15.0 24.0 0.00 0.00 0.00 91 1014.0
20260508045046 61 249 11.0 17.0 0.00 0.00 0.00 91 1014.3
20260508044043 61 258 11.0 19.0 0.00 0.00 0.00 90 1014.5
20260508043100 61 279 15.0 30.0 0.00 0.00 0.00 91 1014.4
20260508042038 61 277 15.0 30.0 0.00 0.00 0.00 92 1014.4
20260508041053 61 252 11.0 17.0 0.00 0.00 0.00 92 1014.7
20260508040028 60 18 7.0 11.0 0.00 0.00 0.00 90 1014.7
20260508035045 60 236 12.0 18.0 0.00 0.00 0.00 89 1014.7
20260508034022 60 248 9.0 15.0 0.00 0.00 0.00 87 1014.5
20260508033017 61 246 11.0 20.0 0.00 0.00 0.00 84 1014.7
20260508032115 61 235 8.0 14.0 0.00 0.00 0.00 82 1014.7
20260508031133 62 29 7.0 15.0 0.00 0.00 0.00 80 1015.0
20260508030108 62 231 7.0 15.0 0.00 0.00 0.00 80 1015.1
20260508025104 62 235 11.0 21.0 0.00 0.00 0.00 80 1014.9
20260508024201 62 182 9.0 16.0 0.00 0.00 0.00 80 1015.2